K5GTX Weather Reports


time (UTC)temp
F
wind
direction
speed
knots
gust
knots
rain 1hr
in
rain 24hr
in
rain mn
in
humidity
%
barometer
mb
20260510091125 69 35 8.7 20.0 0.00 0.00 0.00 99 1019.6
20260510090617 69 62 8.7 19.1 0.00 0.00 0.00 99 1019.8
20260510090113 70 99 2.6 13.9 0.00 0.00 0.00 99 1019.5
20260510085608 70 10 2.6 14.8 0.00 0.00 0.00 99 1019.4
20260510085104 73 37 7.8 9.6 0.00 0.00 0.00 99 1019.4
20260510084600 72 27 5.2 5.2 0.00 0.00 0.00 99 1019.1
20260510084057 73 14 1.7 7.8 0.00 0.00 0.00 99 1019.1
20260510083553 73 52 3.5 4.3 0.00 0.00 0.00 99 1018.9
20260510083050 73 63 0.0 6.1 0.00 0.00 0.00 99 1018.3
20260510082547 73 15 0.0 2.6 0.00 0.00 0.00 99 1018.2
20260510082042 73 114 0.0 4.3 0.00 0.00 0.00 99 1018.1
20260510081537 73 19 1.7 3.5 0.00 0.00 0.00 99 1018.4
20260510081033 73 19 2.6 5.2 0.00 0.00 0.00 99 1018.7
20260510080532 73 42 2.6 4.3 0.00 0.00 0.00 99 1018.5
20260510080030 73 73 1.7 6.1 0.00 0.00 0.00 99 1018.2
20260510075527 73 24 1.7 3.5 0.00 0.00 0.00 99 1017.8
20260510075023 73 90 0.0 0.0 0.00 0.00 0.00 99 1017.7
20260510074521 73 78 0.0 1.7 0.00 0.00 0.00 99 1017.6
20260510074016 74 77 0.0 1.7 0.00 0.00 0.00 99 1017.2
20260510073513 74 90 0.0 1.7 0.00 0.00 0.00 99 1017.0
20260510073010 74 109 0.9 1.7 0.00 0.00 0.00 99 1016.9
20260510072506 74 66 0.0 1.7 0.00 0.00 0.00 99 1017.0
20260510072001 74 109 0.0 2.6 0.00 0.00 0.00 99 1016.6
20260510071458 74 97 0.0 1.7 0.00 0.00 0.00 99 1016.7
20260510070956 74 90 0.0 1.7 0.00 0.00 0.00 99 1016.6
20260510070453 75 106 0.9 2.6 0.00 0.00 0.00 99 1016.4
20260510065949 75 114 2.6 2.6 0.00 0.00 0.00 99 1016.3
20260510065446 75 109 0.0 2.6 0.00 0.00 0.00 99 1016.8
20260510064942 75 106 1.7 4.3 0.00 0.00 0.00 99 1017.9
20260510064440 75 59 1.7 4.3 0.00 0.00 0.00 99 1018.3
20260510063936 75 71 3.5 8.7 0.00 0.00 0.00 99 1018.2
20260510063432 75 105 2.6 7.8 0.00 0.00 0.00 99 1018.5
20260510062931 75 53 1.7 11.3 0.00 0.00 0.00 99 1018.6
20260510062430 75 28 3.5 7.0 0.00 0.00 0.00 99 1018.7
20260510061926 75 14 4.3 6.1 0.00 0.00 0.00 99 1018.5
20260510061423 75 121 1.7 7.0 0.00 0.00 0.00 99 1018.7
20260510060919 75 42 2.6 9.6 0.00 0.00 0.00 99 1018.6
20260510060416 75 17 4.3 5.2 0.00 0.00 0.00 99 1018.3
20260510055913 75 25 3.5 5.2 0.00 0.00 0.00 99 1017.6
20260510055408 75 75 0.0 1.7 0.00 0.00 0.00 99 1016.9
20260510054906 75 74 0.0 0.9 0.00 0.00 0.00 99 1016.6
20260510054402 75 98 0.0 1.7 0.00 0.00 0.00 99 1016.1
20260510053857 75 106 0.9 0.9 0.00 0.00 0.00 99 1016.2
20260510053353 75 106 0.0 0.9 0.00 0.00 0.00 99 1016.1
20260510052849 75 90 0.0 1.7 0.00 0.00 0.00 99 1016.0
20260510052345 75 84 0.0 1.7 0.00 0.00 0.00 99 1016.0
20260510051841 75 135 0.0 2.6 0.00 0.00 0.00 99 1015.7
20260510051338 75 98 0.0 2.6 0.00 0.00 0.00 99 1015.8
20260510050835 75 120 0.0 1.7 0.00 0.00 0.00 99 1015.7
20260510050332 74 98 0.0 0.9 0.00 0.00 0.00 99 1015.7
20260510045829 74 114 0.0 1.7 0.00 0.00 0.00 99 1015.8
20260510045326 74 106 0.0 1.7 0.00 0.00 0.00 99 1015.9
20260510044823 74 75 0.0 3.5 0.00 0.00 0.00 99 1015.6
20260510044320 74 114 2.6 2.6 0.00 0.00 0.00 99 1015.4
20260510043816 74 135 1.7 1.7 0.00 0.00 0.00 99 1015.2
20260510043312 74 246 0.0 1.7 0.00 0.00 0.00 99 1015.5
20260510042810 74 131 0.0 1.7 0.00 0.00 0.00 99 1015.0
20260510042307 73 114 0.0 0.0 0.00 0.00 0.00 99 1015.2
20260510041802 73 165 0.9 1.7 0.00 0.00 0.00 99 1015.5
20260510041259 73 106 0.9 1.7 0.00 0.00 0.00 99 1015.4
20260510040757 74 165 0.0 0.0 0.00 0.00 0.00 99 1015.5
20260510040248 74 90 0.0 0.0 0.00 0.00 0.00 99 1015.6
20260510035743 74 90 0.0 0.0 0.00 0.00 0.00 99 1015.7
20260510035239 74 90 0.0 0.0 0.00 0.00 0.00 99 1015.7
20260510034735 74 90 0.0 0.0 0.00 0.00 0.00 99 1015.7
20260510034233 75 105 0.0 0.0 0.00 0.00 0.00 99 1015.6
20260510033729 75 103 0.0 0.0 0.00 0.00 0.00 99 1015.6
20260510033227 75 106 0.0 0.0 0.00 0.00 0.00 99 1015.7
20260510032723 75 106 0.0 0.9 0.00 0.00 0.00 99 1015.7
20260510032219 75 106 0.0 0.0 0.00 0.00 0.00 99 1015.5
20260510031714 75 99 0.0 0.9 0.00 0.00 0.00 99 1015.5
20260510031210 75 117 0.0 0.0 0.00 0.00 0.00 99 1015.6
20260510030704 76 111 0.0 0.0 0.00 0.00 0.00 99 1015.7
20260510030202 76 97 0.0 0.9 0.00 0.00 0.00 99 1015.5
20260510025659 77 106 0.0 0.9 0.00 0.00 0.00 99 1015.6
20260510025156 77 101 0.0 1.7 0.00 0.00 0.00 99 1015.6
20260510024653 77 98 0.0 0.9 0.00 0.00 0.00 99 1015.5
20260510024149 77 114 0.9 1.7 0.00 0.00 0.00 99 1015.7
20260510023645 77 81 0.0 0.9 0.00 0.00 0.00 99 1015.8
20260510023142 77 90 0.0 0.9 0.00 0.00 0.00 99 1015.7
20260510022637 77 97 0.0 0.9 0.00 0.00 0.00 99 1015.6
20260510022132 78 99 0.0 0.9 0.00 0.00 0.00 99 1015.5
20260510021628 78 98 0.0 0.9 0.00 0.00 0.00 99 1015.4
20260510021126 78 96 0.0 1.7 0.00 0.00 0.00 99 1015.4
20260510020620 78 90 0.0 0.9 0.00 0.00 0.00 99 1015.2
20260510020115 78 114 0.0 1.7 0.00 0.00 0.00 99 1015.4
20260510015612 78 126 0.0 0.9 0.00 0.00 0.00 99 1015.2
20260510015108 79 99 0.9 1.7 0.00 0.00 0.00 99 1015.3
20260510014604 79 120 0.0 1.7 0.00 0.00 0.00 99 1015.2
20260510014101 79 90 0.0 1.7 0.00 0.00 0.00 99 1015.0
20260510013555 80 114 0.9 1.7 0.00 0.00 0.00 99 1014.8
20260510013052 80 126 0.0 0.9 0.00 0.00 0.00 99 1015.0
20260510012545 80 97 0.0 0.9 0.00 0.00 0.00 99 1014.8
20260510012043 80 106 0.0 1.7 0.00 0.00 0.00 99 1014.7
20260510011542 80 106 0.0 0.9 0.00 0.00 0.00 99 1014.7
20260510011038 81 117 0.9 1.7 0.00 0.00 0.00 99 1014.5
20260510010535 81 103 0.9 1.7 0.00 0.00 0.00 99 1014.6
20260510010032 82 96 1.7 1.7 0.00 0.00 0.00 99 1014.5
20260510005527 83 90 0.0 1.7 0.00 0.00 0.00 99 1014.5
20260510005026 83 101 0.0 1.7 0.00 0.00 0.00 99 1014.2
20260510004523 84 99 0.0 1.7 0.00 0.00 0.00 99 1014.5
20260510004021 84 83 0.9 1.7 0.00 0.00 0.00 99 1014.5
20260510003517 84 90 0.0 1.7 0.00 0.00 0.00 99 1014.5
20260510003013 85 90 0.0 1.7 0.00 0.00 0.00 99 1014.3
20260510002508 85 96 0.0 1.7 0.00 0.00 0.00 99 1014.3
20260510002005 86 103 1.7 2.6 0.00 0.00 0.00 99 1014.5
20260510001503 86 90 0.0 1.7 0.00 0.00 0.00 99 1014.3
20260510001001 86 69 0.0 2.6 0.00 0.00 0.00 99 1014.4
20260510000456 86 102 1.7 1.7 0.00 0.00 0.00 99 1014.4
20260509235953 86 90 0.0 1.7 0.00 0.00 0.00 99 1014.6
20260509235449 86 74 0.0 3.5 0.00 0.00 0.00 99 1014.4
20260509234946 87 104 2.6 2.6 0.00 0.00 0.00 99 1014.5
20260509234443 86 45 1.7 2.6 0.00 0.00 0.00 99 1014.8
20260509233941 86 98 0.0 2.6 0.00 0.00 0.00 99 1014.6
20260509233438 87 135 0.0 2.6 0.00 0.00 0.00 99 1014.7
20260509232934 87 99 0.0 2.6 0.00 0.00 0.00 99 1014.8
20260509232432 87 114 0.0 2.6 0.00 0.00 0.00 99 1014.7
20260509231927 87 69 0.9 2.6 0.00 0.00 0.00 99 1014.6
20260509231424 87 90 0.0 2.6 0.00 0.00 0.00 99 1014.6
20260509230922 87 120 0.0 2.6 0.00 0.00 0.00 99 1014.7
20260509230419 88 57 0.0 4.3 0.00 0.00 0.00 99 1014.6
20260509225915 87 148 1.7 4.3 0.00 0.00 0.00 99 1014.5
20260509225412 87 85 0.0 2.6 0.00 0.00 0.00 99 1014.6
20260509224908 87 106 1.7 3.5 0.00 0.00 0.00 99 1014.7
20260509224403 87 125 1.7 3.5 0.00 0.00 0.00 99 1014.5
20260509223901 88 132 0.0 3.5 0.00 0.00 0.00 99 1014.6
20260509223357 88 81 1.7 2.6 0.00 0.00 0.00 99 1014.5
20260509222854 87 58 2.6 2.6 0.00 0.00 0.00 99 1014.5
20260509222355 88 95 0.0 1.7 0.00 0.00 0.00 99 1014.5
20260509221850 87 75 1.7 1.7 0.00 0.00 0.00 99 1014.5
20260509221348 87 111 2.6 4.3 0.00 0.00 0.00 99 1014.4
20260509220843 87 129 1.7 2.6 0.00 0.00 0.00 99 1014.7
20260509220339 86 121 1.7 2.6 0.00 0.00 0.00 99 1014.5
20260509215835 87 8 0.9 4.3 0.00 0.00 0.00 99 1014.5
20260509215332 86 101 1.7 3.5 0.00 0.00 0.00 99 1014.4
20260509214829 87 108 1.7 2.6 0.00 0.00 0.00 99 1014.5
20260509214326 86 109 2.6 3.5 0.00 0.00 0.00 99 1014.5
20260509213823 86 120 1.7 2.6 0.00 0.00 0.00 99 1014.7
20260509213318 87 45 0.0 2.6 0.00 0.00 0.00 99 1014.6
20260509212816 86 97 2.6 3.5 0.00 0.00 0.00 99 1014.9
20260509212314 87 81 1.7 3.5 0.00 0.00 0.00 99 1015.2
20260509211809 86 60 0.9 2.6 0.00 0.00 0.00 99 1014.8
20260509211305 87 47 2.6 2.6 0.00 0.00 0.00 99 1014.7
20260509210802 86 115 1.7 3.5 0.00 0.00 0.00 99 1014.9
20260509210300 87 119 2.6 2.6 0.00 0.00 0.00 99 1014.9
20260509205759 87 58 2.6 4.3 0.00 0.00 0.00 99 1014.9
20260509205254 87 15 0.9 5.2 0.00 0.00 0.00 99 1015.2
20260509204750 87 95 1.7 2.6 0.00 0.00 0.00 99 1015.3
20260509204247 87 115 0.0 2.6 0.00 0.00 0.00 99 1015.2
20260509203743 87 129 2.6 2.6 0.00 0.00 0.00 99 1015.3
20260509203241 87 132 1.7 2.6 0.00 0.00 0.00 99 1015.3
20260509202736 86 115 1.7 3.5 0.00 0.00 0.00 99 1015.7
20260509202233 85 108 1.7 2.6 0.00 0.00 0.00 99 1015.5
20260509201727 87 114 2.6 2.6 0.00 0.00 0.00 99 1015.3
20260509201224 87 116 3.5 4.3 0.00 0.00 0.00 99 1015.6
20260509200720 86 157 0.9 3.5 0.00 0.00 0.00 99 1015.6
20260509200215 85 101 1.7 3.5 0.00 0.00 0.00 99 1015.6
20260509195711 85 81 0.0 5.2 0.00 0.00 0.00 99 1015.6
20260509195207 86 115 1.7 3.5 0.00 0.00 0.00 99 1015.5
20260509194701 85 102 2.6 6.1 0.00 0.00 0.00 99 1015.8
20260509194158 86 30 1.7 5.2 0.00 0.00 0.00 99 1015.7
20260509193654 85 144 0.0 3.5 0.00 0.00 0.00 99 1015.8
20260509193149 86 90 1.7 4.3 0.00 0.00 0.00 99 1015.8
20260509192646 86 128 1.7 3.5 0.00 0.00 0.00 99 1016.0
20260509192142 86 98 0.0 3.5 0.00 0.00 0.00 99 1015.8
20260509191641 86 19 5.2 5.2 0.00 0.00 0.00 99 1016.0
20260509191139 85 41 1.7 6.1 0.00 0.00 0.00 99 1015.9
20260509190635 84 90 0.0 2.6 0.00 0.00 0.00 99 1016.1
20260509190132 84 36 2.6 6.1 0.00 0.00 0.00 99 1016.1
20260509185630 83 99 1.7 3.5 0.00 0.00 0.00 99 1016.1
20260509185126 84 111 0.0 3.5 0.00 0.00 0.00 99 1016.2
20260509184624 83 114 0.0 3.5 0.00 0.00 0.00 99 1016.1
20260509184120 82 0 1.7 4.3 0.00 0.00 0.00 99 1016.3
20260509183616 82 66 0.9 4.3 0.00 0.00 0.00 99 1016.3
20260509183112 82 71 4.3 4.3 0.00 0.00 0.00 99 1016.4
20260509182608 82 7 0.0 4.3 0.00 0.00 0.00 99 1016.4
20260509182105 82 23 0.9 4.3 0.00 0.00 0.00 99 1016.4
20260509181603 82 13 4.3 5.2 0.00 0.00 0.00 99 1016.4
20260509181100 81 213 1.7 2.6 0.00 0.00 0.00 99 1016.7
20260509180556 81 72 2.6 6.1 0.00 0.00 0.00 99 1016.7
20260509180054 82 50 3.5 3.5 0.00 0.00 0.00 99 1016.6
20260509175549 81 60 0.9 4.3 0.00 0.00 0.00 99 1016.9
20260509175046 80 349 2.6 5.2 0.00 0.00 0.00 99 1017.0
20260509174542 81 106 0.9 2.6 0.00 0.00 0.00 99 1016.9
20260509174038 81 79 2.6 4.3 0.00 0.00 0.00 99 1017.0
20260509173532 81 132 0.0 4.3 0.00 0.00 0.00 99 1016.9
20260509173029 80 66 0.9 2.6 0.00 0.00 0.00 99 1017.2
20260509172526 79 126 0.9 5.2 0.00 0.00 0.00 99 1017.2
20260509172021 79 90 0.0 2.6 0.00 0.00 0.00 99 1017.4
20260509171518 79 30 3.5 6.1 0.00 0.00 0.00 99 1017.3
20260509171015 78 53 2.6 6.1 0.00 0.00 0.00 99 1017.4
20260509170510 79 27 3.5 3.5 0.00 0.00 0.00 99 1017.3
20260509170006 79 180 0.9 6.1 0.00 0.00 0.00 99 1017.2
20260509165505 78 345 0.9 5.2 0.00 0.00 0.00 99 1017.1
20260509165001 78 345 0.9 11.3 0.00 0.00 0.00 99 1017.3
20260509164457 78 356 1.7 6.1 0.00 0.00 0.00 99 1017.4
20260509163953 77 67 4.3 7.0 0.00 0.00 0.00 99 1017.2
20260509163451 78 294 2.6 6.1 0.00 0.00 0.00 99 1017.4
20260509162949 78 348 3.5 6.1 0.00 0.00 0.00 99 1017.2
20260509162449 77 72 2.6 4.3 0.00 0.00 0.00 99 1017.1
20260509161944 77 46 4.3 6.1 0.00 0.00 0.00 99 1017.4
20260509161441 77 341 2.6 7.8 0.00 0.00 0.00 99 1017.2
20260509160936 77 355 2.6 4.3 0.00 0.00 0.00 99 1017.3
20260509160432 76 39 3.5 6.1 0.00 0.00 0.00 99 1017.4
20260509155927 77 86 0.0 8.7 0.00 0.00 0.00 99 1017.1
20260509155424 76 90 0.9 4.3 0.00 0.00 0.00 99 1017.2
20260509154920 75 32 4.3 6.1 0.00 0.00 0.00 99 1017.3
20260509154417 76 26 1.7 5.2 0.00 0.00 0.00 99 1017.2
20260509153914 75 354 2.6 4.3 0.00 0.00 0.00 99 1017.4
20260509153411 74 14 0.9 6.1 0.00 0.00 0.00 99 1017.3
20260509152908 74 15 3.5 4.3 0.00 0.00 0.00 99 1017.2
20260509152404 74 298 2.6 4.3 0.00 0.00 0.00 99 1017.3
20260509151901 74 283 2.6 5.2 0.00 0.00 0.00 99 1017.3
20260509151357 74 21 1.7 4.3 0.00 0.00 0.00 99 1017.2
20260509150855 73 355 2.6 4.3 0.00 0.00 0.00 99 1017.4
20260509150353 73 60 0.0 4.3 0.00 0.00 0.00 99 1017.3
20260509145850 73 272 4.3 4.3 0.00 0.00 0.00 99 1017.5
20260509145345 72 9 1.7 4.3 0.00 0.00 0.00 99 1017.3
20260509144841 73 318 2.6 4.3 0.00 0.00 0.00 99 1017.6
20260509144338 72 356 1.7 5.2 0.00 0.00 0.00 99 1017.5
20260509143835 72 321 2.6 5.2 0.00 0.00 0.00 99 1017.5
20260509143333 72 40 2.6 4.3 0.00 0.00 0.00 99 1017.4
20260509142829 72 0 1.7 7.0 0.00 0.00 0.00 99 1017.4
20260509142325 72 339 1.7 4.3 0.00 0.00 0.00 99 1017.3
20260509141821 72 306 0.0 6.1 0.00 0.00 0.00 99 1017.2
20260509141318 72 12 3.5 7.0 0.00 0.00 0.00 99 1017.0
20260509140814 73 266 4.3 4.3 0.00 0.00 0.00 99 1017.2
20260509140312 72 308 4.3 5.2 0.00 0.00 0.00 99 1017.2
20260509135810 72 358 0.0 5.2 0.00 0.00 0.00 99 1017.2
20260509135307 72 35 3.5 6.1 0.00 0.00 0.00 99 1017.1
20260509134804 72 354 0.0 2.6 0.00 0.00 0.00 99 1016.9
20260509134301 71 339 2.6 4.3 0.00 0.00 0.00 99 1017.0
20260509133758 71 25 4.3 5.2 0.00 0.00 0.00 99 1017.1
20260509133254 71 297 0.9 3.5 0.00 0.00 0.00 99 1017.0
20260509132754 71 349 0.0 3.5 0.00 0.00 0.00 99 1016.6
20260509132252 71 98 0.0 2.6 0.00 0.00 0.00 99 1016.9
20260509131748 71 320 2.6 4.3 0.00 0.00 0.00 99 1017.1
20260509131245 70 292 2.6 3.5 0.00 0.00 0.00 99 1016.8
20260509130741 70 14 0.0 1.7 0.00 0.00 0.00 99 1016.8
20260509130237 70 270 0.0 0.0 0.00 0.00 0.00 99 1017.0
20260509125733 70 90 0.0 1.7 0.00 0.00 0.00 99 1016.6
20260509125231 70 286 0.0 0.9 0.00 0.00 0.00 99 1016.7
20260509124727 70 81 0.0 0.0 0.00 0.00 0.00 99 1017.0
20260509124223 69 82 0.0 1.7 0.00 0.00 0.00 99 1016.6
20260509123722 69 240 0.0 0.9 0.00 0.00 0.00 99 1016.7
20260509123219 69 90 0.0 0.0 0.00 0.00 0.00 99 1017.0
20260509122714 69 8 0.0 0.9 0.00 0.00 0.00 99 1016.9
20260509122211 69 90 0.0 0.0 0.00 0.00 0.00 99 1016.7
20260509121708 69 90 0.0 0.0 0.00 0.00 0.00 99 1016.8
20260509121206 69 90 0.0 0.0 0.00 0.00 0.00 99 1016.8
20260509120704 69 90 0.0 0.0 0.00 0.00 0.00 99 1016.8
20260509120201 68 90 0.0 0.0 0.00 0.00 0.00 99 1016.7
20260509115659 68 90 0.0 0.0 0.00 0.00 0.00 99 1016.5
20260509115156 69 90 0.0 0.0 0.00 0.00 0.00 99 1016.6
20260509114654 68 99 0.0 0.0 0.00 0.00 0.00 99 1016.5
20260509114153 69 90 0.0 0.0 0.00 0.00 0.00 99 1016.5
20260509113651 69 90 0.0 0.0 0.00 0.00 0.00 99 1016.3
20260509113147 69 99 0.0 0.0 0.00 0.00 0.00 99 1016.1
20260509112644 69 90 0.0 1.7 0.00 0.00 0.00 99 1015.9
20260509112141 70 120 1.7 1.7 0.00 0.00 0.00 99 1015.9
20260509111639 70 111 0.9 1.7 0.00 0.00 0.00 99 1015.8
20260509111135 69 90 0.0 0.9 0.00 0.00 0.00 99 1015.8
20260509110632 69 82 0.9 0.9 0.00 0.00 0.00 99 1015.8
20260509110129 69 81 0.0 0.9 0.00 0.00 0.00 99 1015.8
20260509105627 69 90 0.0 0.9 0.00 0.00 0.00 99 1015.6
20260509105125 69 74 0.0 0.0 0.00 0.00 0.00 99 1015.8
20260509104622 70 74 0.0 1.7 0.00 0.00 0.00 99 1015.3
20260509104118 70 90 0.0 0.9 0.00 0.00 0.00 99 1015.5
20260509103616 69 99 0.0 1.7 0.00 0.00 0.00 99 1015.4
20260509103114 69 139 1.7 1.7 0.00 0.00 0.00 99 1015.4
20260509102611 70 90 0.0 1.7 0.00 0.00 0.00 99 1015.4
20260509102108 70 106 0.9 1.7 0.00 0.00 0.00 99 1015.4
20260509101604 70 114 0.0 0.9 0.00 0.00 0.00 99 1015.6
20260509101101 70 111 0.9 0.9 0.00 0.00 0.00 99 1015.6
20260509100558 70 106 0.0 1.7 0.00 0.00 0.00 99 1015.4
20260509100056 70 99 0.0 0.9 0.00 0.00 0.00 99 1015.4
20260509095552 70 84 1.7 1.7 0.00 0.00 0.00 99 1015.6
20260509095050 70 35 0.0 0.9 0.00 0.00 0.00 99 1015.4
20260509094545 70 97 0.9 1.7 0.00 0.00 0.00 99 1015.4
20260509094043 70 74 0.9 0.9 0.00 0.00 0.00 99 1015.5
20260509093541 70 90 0.9 2.6 0.00 0.00 0.00 99 1015.4
20260509093038 70 21 1.7 2.6 0.00 0.00 0.00 99 1015.3
20260509092536 70 48 1.7 3.5 0.00 0.00 0.00 99 1015.2
20260509092035 70 0 1.7 1.7 0.00 0.00 0.00 99 1015.2
20260509091532 69 303 1.7 1.7 0.00 0.00 0.00 99 1015.3